Weather observations for the past three days for
Pohnpei Island
| Date | Time (+11) | Wind (mph) | Vis. (mi.) | Weather | Sky Cond. | Temperature (ºF) | Relative Humidity | Wind Chill (°F) | Heat Index (°F) | Pressure | Precipitation (in) | ||||||
|---|---|---|---|---|---|---|---|---|---|---|---|---|---|---|---|---|---|
| Air | Dwpt | 6 hour | altimeter (in) | sea level (mb) | 1 hr | 3 hr | 6 hr | ||||||||||
| Max. | Min. | ||||||||||||||||
| 03 | 17:50 | SW 3 | 15.00 | Overcast | BKN018TCU BKN130 OVC300 | 84.2 | 78.8 | 84% | 96 | 29.9 | 0.0 | ||||||
| 03 | 16:55 | W 10 | 15.00 | Mostly Cloudy | SCT018 SCT130 BKN300 | 84.2 | 78.8 | 84% | 96 | 29.89 | 0.0 | ||||||
| 03 | 15:53 | NW 10 | 15.00 | Mostly Cloudy | SCT018 SCT130 BKN300 | 86 | 78.8 | 79% | 99 | 29.88 | 0.0 | ||||||
| 03 | 14:53 | W 12 | 15.00 | Mostly Cloudy | SCT018 SCT130 BKN300 | 87.8 | 78.8 | 75% | 102 | 29.88 | 0.0 | ||||||
| 03 | 13:56 | W 12 | 15.00 | Mostly Cloudy | SCT018 SCT130 BKN300 | 87.8 | 78.8 | 75% | 102 | 29.88 | 0.0 | ||||||
| 03 | 12:56 | W 12 | 15.00 | Mostly Cloudy | SCT018 SCT130 BKN300 | 87.8 | 80.6 | 79% | 105 | 29.91 | 0.0 | ||||||
| 03 | 11:58 | W 12 | 13.00 | Light Showers Rain | SCT018CB BKN130 BKN300 | 80.6 | 78.8 | 94% | 88 | 29.93 | 0.0 | ||||||
| 03 | 10:53 | W 12 | 15.00 | Overcast | BKN018CB OVC300 | 87.8 | 80.6 | 79% | 105 | 29.93 | 0.0 | ||||||
| 03 | 09:51 | S 6 | 15.00 | Partly Cloudy | FEW018 FEW130 SCT300 | 87.8 | 78.8 | 75% | 102 | 29.93 | 0.0 | ||||||
| 03 | 08:56 | W 5 | 15.00 | Mostly Cloudy | FEW018 SCT130 BKN300 | 84.2 | 78.8 | 84% | 96 | 29.93 | 0.0 | ||||||
| 03 | 07:58 | W 13 | 15.00 | Mostly Cloudy | SCT018CB BKN130 BKN300 | 82.4 | 78.8 | 89% | 92 | 29.91 | 0.0 | ||||||
| 02 | 14:59 | W 12 | 15.00 | Overcast | SCT018 BKN130 OVC300 | 84.2 | 78.8 | 84% | 96 | 29.82 | 0.0 | ||||||
| 02 | 13:54 | W 12 | 15.00 | Overcast | SCT018 BKN130 OVC300 | 84.2 | 78.8 | 84% | 96 | 29.84 | 0.0 | ||||||
| 02 | 12:52 | W 12 | 15.00 | Overcast | SCT018 BKN130 OVC300 | 86 | 78.8 | 79% | 99 | 29.88 | 0.0 | ||||||
| 02 | 11:52 | W 12 | 15.00 | Overcast | SCT018TCU BKN130 OVC300 | 86 | 78.8 | 79% | 99 | 29.9 | 0.0 | ||||||
| 02 | 10:54 | W 12 | 15.00 | Overcast | SCT018CB BKN130 OVC300 | 82.4 | 77 | 84% | 91 | 29.93 | 0.0 | ||||||
| 02 | 09:54 | W 6 | 15.00 | Showers in Vicinity | SCT018 BKN130 BKN300 | 86 | 80.6 | 84% | 102 | 29.94 | 0.0 | ||||||
| 02 | 08:55 | W 6 | 15.00 | Mostly Cloudy | SCT018 BKN130 BKN300 | 84.2 | 78.8 | 84% | 96 | 29.94 | 0.0 | ||||||
| 02 | 08:16 | SW 5 | 15.00 | Overcast | FEW018 BKN130 OVC300 | 80.6 | 78.8 | 94% | 88 | 29.92 | 0.0 | ||||||
| 01 | 15:54 | W 17 | 12.00 | Light Showers Rain | BKN018CB BKN130 OVC300 | 86 | 77 | 75% | 97 | 29.84 | 0.0 | ||||||
| 01 | 14:56 | W 12 | 15.00 | Mostly Cloudy | SCT018 BKN130 BKN300 | 87.8 | 78.8 | 75% | 102 | 29.84 | 0.0 | ||||||
| 01 | 13:52 | SW 18 | 15.00 | Mostly Cloudy | SCT018 BKN130 BKN300 | 87.8 | 78.8 | 75% | 102 | 29.86 | 0.0 | ||||||
| 01 | 12:54 | W 12 | 15.00 | Mostly Cloudy | SCT018 BKN130 BKN300 | 87.8 | 78.8 | 75% | 102 | 29.87 | 0.0 | ||||||
| 01 | 11:53 | W 14 | 15.00 | Overcast | SCT018CB BKN130 OVC300 | 87.8 | 80.6 | 79% | 105 | 29.89 | 0.0 | ||||||
| 01 | 10:55 | W 9 | 15.00 | Overcast | BKN018CB OVC300 | 87.8 | 78.8 | 75% | 102 | 29.9 | 0.0 | ||||||
| 01 | 09:58 | SW 9 | 15.00 | Overcast | BKN018CB OVC300 | 87.8 | 78.8 | 75% | 102 | 29.91 | 0.0 | ||||||
| 01 | 08:53 | W 8 | 15.00 | Overcast | SCT018 BKN130 OVC300 | 84.2 | 78.8 | 84% | 96 | 29.91 | 0.0 | ||||||
| 01 | 07:58 | W 8 | 15.00 | Mostly Cloudy | SCT018 BKN130 BKN300 | 84.2 | 78.8 | 84% | 96 | 29.9 | 0.0 | ||||||
| Date | Time (+11) | Wind (mph) | Vis. (mi.) | Weather | Sky Cond. | Air | Dwpt | Max. | Min. | Relative Humidity | Wind Chill (°F) | Heat Index (°F) | altimeter (in) | sea level (mb) | 1 hr | 3 hr | 6 hr |
| 6 hour | |||||||||||||||||
| Temperature (ºF) | Pressure | Precipitation (in) | |||||||||||||||